TimeEDT,TemperatureF,Dew PointF,Humidity,Sea Level PressureIn,VisibilityMPH,Wind Direction,Wind SpeedMPH,Gust SpeedMPH,PrecipitationIn,Events,Conditions,WindDirDegrees,DateUTC
12:52 AM,43.0,30.9,62,30.04,10.0,NW,3.5,-,N/A,,Overcast,320,2013-03-30 04:52:00
1:52 AM,43.0,30.0,60,30.04,10.0,NW,3.5,-,N/A,,Overcast,310,2013-03-30 05:52:00
2:52 AM,42.1,30.0,62,30.04,10.0,WNW,4.6,-,N/A,,Overcast,300,2013-03-30 06:52:00
3:52 AM,42.1,30.0,62,30.04,10.0,WNW,3.5,-,N/A,,Overcast,290,2013-03-30 07:52:00
4:52 AM,42.1,30.0,62,30.04,10.0,NW,5.8,-,N/A,,Overcast,310,2013-03-30 08:52:00
5:52 AM,42.1,30.0,62,30.04,10.0,NW,5.8,-,N/A,,Overcast,320,2013-03-30 09:52:00
6:52 AM,41.0,28.9,62,30.05,10.0,WNW,5.8,-,N/A,,Overcast,300,2013-03-30 10:52:00
7:52 AM,43.0,28.9,58,30.06,10.0,NW,8.1,-,N/A,,Clear,310,2013-03-30 11:52:00
8:52 AM,45.0,28.9,53,30.07,10.0,NW,10.4,-,N/A,,Clear,320,2013-03-30 12:52:00
9:52 AM,48.9,28.9,46,30.07,10.0,North,8.1,-,N/A,,Clear,360,2013-03-30 13:52:00
10:52 AM,51.1,28.0,41,30.07,10.0,NNE,6.9,-,N/A,,Partly Cloudy,20,2013-03-30 14:52:00
11:52 AM,50.0,28.0,43,30.06,10.0,NE,8.1,-,N/A,,Mostly Cloudy,50,2013-03-30 15:52:00
12:52 PM,50.0,28.9,44,30.05,10.0,East,8.1,-,N/A,,Mostly Cloudy,80,2013-03-30 16:52:00
1:52 PM,51.1,27.0,39,30.04,10.0,NE,9.2,-,N/A,,Mostly Cloudy,40,2013-03-30 17:52:00
2:52 PM,51.1,25.0,36,30.03,10.0,ENE,8.1,-,N/A,,Overcast,70,2013-03-30 18:52:00
3:52 PM,52.0,26.1,37,30.02,10.0,ESE,9.2,-,N/A,,Scattered Clouds,120,2013-03-30 19:52:00
4:52 PM,51.1,27.0,39,30.03,10.0,SSE,6.9,-,N/A,,Clear,150,2013-03-30 20:52:00
5:52 PM,51.1,25.0,36,30.04,10.0,Variable,4.6,-,N/A,,Clear,0,2013-03-30 21:52:00
6:52 PM,46.9,28.9,50,30.05,10.0,SSE,3.5,-,N/A,,Clear,150,2013-03-30 22:52:00
7:52 PM,43.0,30.9,62,30.06,10.0,Variable,3.5,-,N/A,,Clear,0,2013-03-30 23:52:00
9:52 PM,35.1,28.9,78,30.09,10.0,Calm,Calm,-,N/A,,Clear,0,2013-03-31 01:52:00
10:52 PM,34.0,28.0,79,30.10,10.0,Calm,Calm,-,N/A,,Clear,0,2013-03-31 02:52:00
11:52 PM,30.9,27.0,85,30.10,10.0,Calm,Calm,-,N/A,,Clear,0,2013-03-31 03:52:00